Lid_Strength_Index
0 2 7 7 10 12 14 13 10 10 11 9 7 8 9 8 9 12 3 1 0 0 -0 -1 -1 -2 -2 -2 -2 -2 -2 -2 -2 -2 -2 -2 -2 -2 -2 -2 -2 -2 -2 -2 -2 -2 -2 -2 -2
2 3 8 10 13 14 14 11 11 9 8 6 7 7 8 10 6 5 3 1 -0 -0 -0 -0 -1 -2 -2 -2 -2 -2 -2 -2 -2 -2 -2 -2 -2 -2 -2 -2 -2 -2 -2 -2 -2 -2 -2 -2 -2
3 6 10 13 15 15 14 11 10 8 7 8 8 6 8 9 5 4 3 0 -0 0 -0 -0 -1 -2 -2 -2 -2 -2 -2 -2 -2 -2 -2 -2 -2 -2 -2 -2 -2 -2 -2 -2 -2 -2 -2 -2 -2
5 6 9 14 15 14 12 11 9 8 8 7 7 9 7 4 4 2 0 0 0 1 0 -0 -1 -2 -2 -2 -2 -2 -2 -2 -2 -2 -2 -2 -2 -2 -2 -2 -2 -2 -2 -2 -2 -2 -2 -2 -2
6 8 12 15 14 13 12 10 9 9 9 8 7 10 9 5 2 1 1 0 0 1 1 -0 -1 -1 -2 -2 -2 -2 -2 -3 -3 -2 -2 -2 -2 -2 -2 -2 -2 -2 -2 -2 -2 -2 -1 -1 -1
8 8 13 15 13 12 11 10 10 10 9 8 8 8 9 5 3 2 1 1 0 1 0 -0 0 -0 -1 -2 -2 -2 -2 -2 -2 -2 -2 -2 -3 -2 -2 -2 -2 -2 -2 -2 -2 -1 -1 -1 -1
8 10 14 15 13 12 12 10 11 11 10 9 6 9 8 6 3 2 2 1 1 1 1 0 0 0 0 -1 -1 -2 -2 -2 -2 -2 -2 -2 -2 -3 -2 -2 -3 -2 -2 -1 -1 -1 -1 -1 -1
8 9 14 14 13 12 11 10 10 10 10 8 6 9 9 5 3 3 2 2 2 1 1 0 0 0 0 0 1 -0 -1 -2 -2 -2 -1 -1 -1 -1 -2 -1 -2 -2 -2 -2 -1 -1 -1 -1 -1
7 11 14 12 12 11 10 11 10 9 9 7 6 7 5 3 3 4 4 2 1 1 1 1 0 0 0 0 0 1 0 -0 -0 -0 0 1 1 1 -0 -0 -1 -2 -2 -2 -1 -1 -2 -2 -2
8 12 11 9 9 10 10 11 10 11 10 8 7 5 4 4 4 4 4 3 2 2 1 1 1 1 0 -0 0 1 -0 0 0 0 0 1 1 1 1 2 0 -1 -1 -2 -2 -2 -1 -0 2
9 11 9 9 8 8 9 10 9 10 11 10 8 7 5 5 5 5 5 3 2 2 2 1 1 1 1 0 0 0 0 1 1 1 1 1 1 2 2 2 2 1 1 0 0 1 1 1 2
12 9 8 8 8 8 9 8 8 10 9 8 8 5 4 5 5 5 5 5 4 3 1 1 1 1 1 1 1 1 0 1 1 1 2 2 2 2 2 2 2 2 2 0 1 1 1 2 3
11 9 8 8 8 8 8 9 9 9 8 7 5 5 5 4 4 4 4 4 5 4 2 2 1 1 0 1 1 1 1 1 1 2 2 2 2 2 2 2 3 4 4 2 2 2 1 2 2
9 9 9 8 8 8 9 9 8 7 8 8 7 5 5 5 4 5 4 3 4 3 3 2 1 0 0 1 1 1 1 1 1 1 2 2 2 2 2 2 3 4 4 2 2 3 3 2 3
8 11 10 9 8 9 9 10 10 8 7 8 8 8 7 5 4 4 3 3 3 3 3 3 1 1 1 1 1 1 1 2 2 2 2 2 2 3 2 2 2 3 3 2 2 3 3 3 3
11 11 14 10 9 8 9 14 10 8 8 8 8 9 9 8 7 6 3 3 3 3 3 2 2 0 0 1 0 0 1 2 2 2 2 2 3 3 4 3 2 2 2 2 2 2 2 3 3
12 16 14 12 8 10 10 13 9 9 10 10 10 10 9 9 8 7 7 6 3 2 2 2 3 2 1 0 0 1 1 1 1 2 2 2 2 3 3 3 3 4 3 2 2 2 2 2 3
15 16 15 15 11 11 12 13 10 9 10 10 10 9 9 9 7 6 6 6 6 5 2 2 2 2 2 1 1 1 1 2 1 2 2 2 2 2 3 3 3 4 4 4 4 3 3 2 2
12 15 15 12 9 12 12 13 12 10 11 11 11 10 9 8 6 7 7 7 7 7 6 3 2 2 2 3 2 1 2 1 2 1 1 2 2 2 2 2 3 4 4 4 4 5 5 6 7
12 15 15 11 10 12 12 13 11 10 10 10 10 10 10 9 8 8 8 8 8 7 7 6 3 2 2 2 2 2 2 1 1 1 1 1 1 2 2 2 2 3 3 4 4 5 6 6 7
12 13 14 14 11 12 14 16 14 12 12 11 10 9 9 9 9 9 9 9 9 9 8 7 5 3 2 2 2 3 3 4 3 2 1 1 1 1 2 1 2 2 3 3 4 4 5 5 7
15 11 12 13 14 17 14 20 17 14 13 12 11 11 11 11 10 10 10 10 10 9 9 8 7 4 2 2 2 3 2 3 2 2 1 1 1 1 1 1 1 2 2 3 3 3 4 4 5
13 10 11 13 14 17 18 18 18 16 15 13 12 12 12 11 10 10 11 10 11 10 10 8 7 6 3 3 2 3 3 2 2 3 3 2 2 1 2 2 2 2 2 2 2 3 3 3 4
9 11 12 13 14 19 17 18 20 17 15 14 13 12 11 10 11 11 11 10 11 10 10 10 9 9 6 3 3 3 3 3 3 4 4 3 3 2 2 2 2 2 2 2 2 2 2 3 3
11 14 20 21 20 21 18 18 18 14 13 14 12 11 12 11 11 11 10 10 10 10 9 9 9 9 9 9 8 5 4 3 4 3 3 3 4 3 2 2 2 2 2 2 2 2 3 2 3
12 13 19 24 22 21 17 19 17 13 11 11 11 11 11 12 11 11 10 10 10 10 10 10 9 9 9 9 9 9 9 6 4 2 2 2 2 2 2 2 2 2 2 2 2 2 2 2 3
13 15 12 17 18 21 19 17 14 13 12 12 12 11 11 12 11 10 10 11 11 11 11 11 11 10 10 10 10 10 10 9 9 8 6 3 1 1 1 1 1 2 2 2 2 2 2 2 2
11 10 16 15 22 23 20 19 18 15 14 13 13 11 13 11 10 10 11 12 12 12 12 12 12 12 12 12 12 11 10 10 9 9 9 8 7 5 2 1 1 1 1 1 1 1 1 1 2
13 14 13 13 16 20 23 20 15 14 13 13 12 12 12 10 10 11 12 12 12 12 12 13 13 13 12 12 12 11 10 10 9 9 9 8 7 6 5 4 1 1 2 1 1 1 1 1 2
10 13 13 17 19 17 17 18 14 14 13 12 12 12 12 10 10 11 12 12 13 13 13 13 13 13 12 12 12 11 11 11 11 10 10 9 9 7 6 5 3 1 1 1 1 1 1 2 2